Regional Weather Roundup
Issued by NWS Columbia, SC

Home | Current Version | Previous Version | Text Only | Print | Product List | Glossary On
Versions: 1 2 3 4 5 6 7 8 9 10 11 12 13 14 15 16 17 18 19 20 21 22 23 24 25 26 27 28 29 30 31 32 33 34 35 36 37 38 39 40 41 42 43 44 45 46 47 48 49 50
000
ASUS42 KCAE 040610
RWRCAE
REGIONAL WEATHER ROUNDUP
NATIONAL WEATHER SERVICE COLUMBIA SC
100 AM EST WED MAR 04 2015

NOTE: "FAIR" INDICATES FEW OR NO CLOUDS BELOW 12,000 FEET WITH NO
SIGNIFICANT WEATHER AND/OR OBSTRUCTIONS TO VISIBILITY.

NOT ALL STATIONS ARE QUALITY CONTROLLED BY THE NATIONAL
WEATHER SERVICE. USE DATA WITH CAUTION...ESPECIALLY
DEWPOINT OBSERVATIONS.

SCZ001>056-GAZ040-063>065-077-040700-
...UPSTATE SOUTH CAROLINA...

CITY           SKY/WX    TMP DP  RH WIND       PRES   REMARKS
ANDERSON       FOG       45  45 100 SW3       30.09F VSB 1/4
6HR MIN TEMP:  45; 6HR MAX TEMP:  45; 6HR PCP: TRACE;

LIBERTY        FOG       44  44 100 MISG      30.08F VSB 1/2
6HR MIN TEMP:  35; 6HR MAX TEMP:  76;

SPARTANBURG    CLOUDY    45 N/A N/A SW3       30.07F FOG
CLEMSON        CLOUDY    46  43  89 CALM      30.09F FOG
6HR MIN TEMP:  46; 6HR MAX TEMP:  46; 6HR PCP:  0.01;

GREENVILLE     CLOUDY    44  43  96 SW3       30.08F FOG
6HR MIN TEMP:  44; 6HR MAX TEMP:  45; 6HR PCP:  0.04;

GREENWOOD      FOG       45  44  97 CALM      30.11F VSB 1/4
6HR MIN TEMP:  45; 6HR MAX TEMP:  45; 6HR PCP: TRACE;

GREER          CLOUDY    45  45 100 SW6       30.06F FOG
6HR MIN TEMP:  43; 6HR MAX TEMP:  45; 6HR PCP:  0.04;

ROCK HILL      FOG       41  41 100 SW3       30.08F VSB 1/2
6HR MIN TEMP:  41; 6HR MAX TEMP:  41; 6HR PCP:  0.01;

CHESTER        FOG       43  43 100 CALM      30.10F VSB 1/4
LAURENS        FOG       43  43 100 CALM      30.09F VSB 1


...CENTRAL SOUTH CAROLINA...

CITY           SKY/WX    TMP DP  RH WIND       PRES   REMARKS
COLUMBIA APT   FOG       45  44  97 SE5       30.10F VSB 1/4
6HR MIN TEMP:  44; 6HR MAX TEMP:  45;

COLUMBIA OWENS FOG       44  43  96 CALM      30.12F VSB 1/4
6HR MIN TEMP:  44; 6HR MAX TEMP:  45;

DARLINGTON     CLOUDY    43  37  81 CALM      30.12F
6HR MIN TEMP:  39; 6HR MAX TEMP:  43;

FLORENCE       FOG       42  41  96 S3        30.11F VSB 3/4
6HR MIN TEMP:  41; 6HR MAX TEMP:  42;

MCENTIRE ANGB  FOG       44  43  99 CALM      30.11F VSB 1/2
6HR MIN TEMP:  42; 6HR MAX TEMP:  44;

ORANGEBURG     FOG       46  45  96 CALM      30.12S VSB 1/4
6HR MIN TEMP:  45; 6HR MAX TEMP:  46;

SUMTER SHAW    FOG       43  41  93 S3        30.09F VSB 1/2
NEWBERRY       FOG       43  43 100 CALM      30.12F VSB 1/4
AIKEN          FOG       46  46 100 CALM      30.13F VSB 1/4
BARNWELL       FOG       50  50 100 CALM      30.12S VSB 1/4
MANNING        CLOUDY   N/A N/A N/A CALM      30.12F HAZE
CAMDEN         FOG       41  41 100 CALM      30.11F VSB<1/4
LANCASTER      LGT RAIN  41  41 100 W5        30.10F VSB 1/4
WINNSBORO      FOG       41  41 100 CALM      30.09F VSB 1/4


...EASTERN AND COASTAL SOUTH CAROLINA...

CITY           SKY/WX    TMP DP  RH WIND       PRES   REMARKS
MYRTLE BEACH   CLOUDY    48  45  87 CALM      30.14F VSB 1/4
6HR MIN TEMP:  46; 6HR MAX TEMP:  48;

N MYRTLE BCH   FOG       47  46  97 S3        30.12F VSB 1/4
6HR MIN TEMP:  46; 6HR MAX TEMP:  48;

CONWAY         FOG       45 N/A N/A CALM      30.13S VSB 1/4
MARION         FOG       43  43 100 CALM      30.12F VSB 1/4
HARTSVILLE     CLOUDY    39  39 100 CALM      30.11F VSB 1/2
FLORENCE       FOG       42  41  96 S3        30.11F VSB 3/4
6HR MIN TEMP:  41; 6HR MAX TEMP:  42;

DARLINGTON     CLOUDY    43  37  81 CALM      30.12F
6HR MIN TEMP:  39; 6HR MAX TEMP:  43;

CHARLESTON APT CLOUDY    55  54  94 E3        30.12F
6HR MIN TEMP:  52; 6HR MAX TEMP:  60;

MOUNT PLEASANT FOG       52  52 100 CALM      30.12F VSB 1
WALTERBORO     CLOUDY    54  52  94 CALM      30.12F
BEAUFORT       FOG       55  54  96 CALM      30.11F VSB 1/4
6HR MIN TEMP:  54; 6HR MAX TEMP:  59;



...EASTERN GEORGIA...

CITY           SKY/WX    TMP DP  RH WIND       PRES   REMARKS
AUGUSTA BUSH F FOG       51  50  96 SE3       30.10F VSB 1/4
6HR MIN TEMP:  50; 6HR MAX TEMP:  53;

AUGUSTA DANIEL FOG       52  51  97 SE3       30.10F VSB 1/4
6HR MIN TEMP:  52; 6HR MAX TEMP:  54;

THOMSON        CLOUDY    52  52 100 CALM      30.14F VSB<1/4
6HR MIN TEMP:  52; 6HR MAX TEMP:  52;

WASHINGTON     FOG       48 N/A N/A CALM      30.10F VSB 1/4
CLAXTON        FAIR      63  63 100 CALM      30.11S
SYLVANIA       CLEAR     56  56 100 CALM      30.11S FOG
6HR MIN TEMP:  56; 6HR MAX TEMP:  62;

STATESBORO     CLEAR     61  61 100 CALM      30.10S FOG
6HR MIN TEMP:  60; 6HR MAX TEMP:  68;

SAVANNAH       CLOUDY    62  61  96 SW9       30.12S
6HR MIN TEMP:  57; 6HR MAX TEMP:  62;



...SOUTHERN NORTH CAROLINA...

CITY           SKY/WX    TMP DP  RH WIND       PRES   REMARKS
CHARLOTTE      DRZL/FOG  42  40  92 SW3       30.08F VSB 1/2
6HR MIN TEMP:  41; 6HR MAX TEMP:  42; 6HR PCP:  0.03;

MONROE         FOG       41  39  93 SW6       30.07F VSB 1/2
6HR MIN TEMP:  39; 6HR MAX TEMP:  41;

WADESBORO      FOG       40  39  97 CALM      30.09F VSB 3/4
6HR MIN TEMP:  39; 6HR MAX TEMP:  40;

ROCKINGHAM       N/A     39  39  98 SW3       30.10F FOG
6HR MIN TEMP:  38; 6HR MAX TEMP:  39; 6HR PCP:  0.01;

RUTHERFORDTON  FOG       42  42 100 SE3       30.06F VSB 1/2
6HR MIN TEMP:  42; 6HR MAX TEMP:  44; 6HR PCP:  0.04;

ASHEVILLE      CLOUDY    51  49  92 S3        30.03F
6HR MIN TEMP:  46; 6HR MAX TEMP:  51; 6HR PCP:  0.01;


$$


USA.gov is the U.S. government's official web portal to all federal, state and local government web resources and services.